This is the latest recevied weather packets stored in our database for station/object MEGLR. If no packets are shown the sender has not sent any weather packets the latest 1 day(s).
| Time | Temp. | Humidity | Pressure | Rain* | Wind** | Luminosity | Snow |
|---|---|---|---|---|---|---|---|
| 1836274377 | 13.89° C | 92% | 0 hPa | - | 3.58 m/s, 230° | - | - |
| 1836274226 | 14.44° C | 90% | 0 hPa | - | 3.13 m/s, 235° | - | - |
| 1778060403 | 11.11° C | 90% | 0 hPa | - | 3.13 m/s, 255° | - | - |
| 1778059803 | 11.11° C | 90% | 0 hPa | - | 2.68 m/s, 280° | - | - |
| 1778059202 | 11.11° C | 90% | 0 hPa | - | 1.34 m/s, 255° | - | - |
| 1778058603 | 11.11° C | 90% | 0 hPa | - | 2.68 m/s, 255° | - | - |
| 1778058003 | 11.11° C | 90% | 0 hPa | - | 2.24 m/s, 245° | - | - |
| 1778057403 | 11.67° C | 90% | 0 hPa | - | 2.24 m/s, 270° | - | - |
| 1778056803 | 11.67° C | 90% | 0 hPa | - | 1.79 m/s, 270° | - | - |
| 1778056203 | 11.67° C | 90% | 0 hPa | - | 1.79 m/s, 285° | - | - |
| 1778055602 | 11.67° C | 89% | 0 hPa | - | 2.24 m/s, 235° | - | - |
| 1778055002 | 11.67° C | 89% | 0 hPa | - | 2.68 m/s, 235° | - | - |
| 1778054403 | 11.67° C | 90% | 0 hPa | - | 1.34 m/s, 255° | - | - |
| 1778053803 | 11.67° C | 89% | 0 hPa | - | 1.79 m/s, 250° | - | - |
| 1778053203 | 11.67° C | 90% | 0 hPa | - | 2.24 m/s, 270° | - | - |
| 1778052608 | 11.67° C | 91% | 0 hPa | - | 3.13 m/s, 280° | - | - |
| 1778052003 | 11.67° C | 91% | 0 hPa | - | 2.24 m/s, 265° | - | - |
| 1778051403 | 11.67° C | 91% | 0 hPa | - | 2.24 m/s, 260° | - | - |
| 1778050803 | 11.67° C | 91% | 0 hPa | - | 2.24 m/s, 240° | - | - |
| 1778050203 | 11.67° C | 90% | 0 hPa | - | 1.79 m/s, 230° | - | - |
| 1778049603 | 11.67° C | 90% | 0 hPa | - | 0.89 m/s, 230° | - | - |
| 1778049003 | 11.67° C | 90% | 0 hPa | - | 1.79 m/s, 255° | - | - |
| 1778048403 | 11.67° C | 89% | 0 hPa | - | 2.24 m/s, 240° | - | - |
| 1778047803 | 11.67° C | 89% | 0 hPa | - | 2.24 m/s, 240° | - | - |
| 1778047204 | 11.67° C | 89% | 0 hPa | - | 2.24 m/s, 265° | - | - |
* Rain since midnight (hover to see other rain measurements)
** Current wind speed in m/s (hover to see current wind gust speed)